Tracking 19817 objects as of 20-Aug-2019
HD Live streaming from Space Station
objects crossing your sky now

REMDEB-DS2

Track REMDEB-DS2 now!
10-day predictions


NORAD ID: 43680
Int'l Code: 1998-067PR
Perigee: 378.2 km
Apogee: 382.4 km
Inclination: 51.6 °
Period: 92.0 minutes
Semi major axis: 6751 km
RCS: Unknown
Launch date: November 20, 1998
Source: United Kingdom (UK)
Launch site: TYURATAM MISSILE AND SPACE COMPLEX (TTMTR)
aabbcc
Your satellite tracking list
Your tracking list is empty




NASA's NSSDC Master Catalog

Two Line Element Set (TLE):
1 43680U 98067PR  19232.01544029  .00015732  00000-0  16211-3 0  9995
2 43680  51.6371  27.2682 0003140  19.7048 340.4068 15.65017251 66347
Source of the keplerian elements: AFSPC